This demonstration page uses our WeatherBlox Daily Observations layout. Learn more.

Left ArrowRight Arrow

Hourly Observations for December 23, 2022

Temp ( °F °C ) Dew Point ( °F °C ) Humidity (%) Winds ( mph kmh ) Pressure ( in mb ) Visibility ( mi km ) Precip ( " mm )
12:53 am 00:53 Partly Cloudy with Mist and Fog 40 4.4 37 2.8 89 89 E 5 7 30.21 1023 4 6 0.00 0.00
1:53 am 01:53 Mostly Cloudy with Mist and Fog 40 4.4 38 3.3 93 93 NW 5 7 30.23 1024 3 5 0.00 0.00
2:53 am 02:53 Partly Cloudy with Mist and Fog 39 3.9 37 2.8 93 93 NW 3 6 30.23 1024 3 5 0.00 0.00
3:53 am 03:53 Cloudy with Mist and Fog 39 3.9 37 2.8 93 93 Calm 30.22 1024 3 5 0.00 0.00
4:38 am 04:38 Partly Cloudy with Mist and Fog 38 3.3 36 2.2 92 92 Calm 30.23 1024 3 4 0.00 0.00
4:53 am 04:53 Clear with Mist and Fog 37 2.8 35 1.7 92 92 Calm 30.23 1024 3 4 0.00 0.00
5:15 am 05:15 Partly Cloudy with Mist and Fog 35 1.7 34 1.1 96 96 WNW 3 6 30.25 1024 2 3 0.00 0.00
5:20 am 05:20 Mostly Cloudy with Mist and Fog 36 2.2 35 1.7 96 96 Calm 30.25 1024 2 3 0.00 0.00
5:53 am 05:53 Mostly Clear with Fog 35 1.7 34 1.1 96 96 Calm 30.24 1024 0 0 0.00 0.00
6:19 am 06:19 Mostly Clear with Fog 35 1.7 34 1.1 96 96 Calm 30.26 1025 0 0 0.00 0.00
6:31 am 06:31 Mostly Clear with Fog 36 2.2 34 1.1 92 92 WSW 3 6 30.27 1025 0 0 0.00 0.00
6:53 am 06:53 Mostly Clear with Fog 36 2.2 35 1.7 96 96 WSW 5 7 30.25 1025 0 0 0.00 0.00
7:20 am 07:20 Partly Cloudy with Fog 36 2.2 35 1.7 96 96 WSW 3 6 30.27 1025 0 0 0.00 0.00
7:53 am 07:53 Partly Cloudy with Fog 36 2.2 36 2.2 100 100 W 3 6 30.27 1025 0 0 0.00 0.00
8:53 am 08:53 Partly Cloudy with Fog 37 2.8 37 2.8 100 100 Calm 30.29 1026 0 0 0.00 0.00
9:53 am 09:53 Partly Cloudy with Fog 38 3.3 37 2.8 97 97 SW 3 6 30.30 1026 0 0 0.00 0.00
10:10 am 10:10 Partly Cloudy with Fog 38 3.3 38 3.3 100 100 W 3 6 30.32 1027 0 0 0.00 0.00
10:51 am 10:51 Cloudy with Fog 39 4 37 3 93 93 Calm 30.32 1027 1 1 0.00 0.00
10:53 am 10:53 Cloudy with Fog 39 3.9 38 3.3 96 96 Calm 30.31 1026 1 1 0.00 0.00
11:17 am 11:17 Cloudy with Mist and Fog 40 4.4 39 3.9 97 97 Calm 30.31 1026 1 2 0.00 0.00
11:53 am 11:53 Cloudy with Mist and Fog 41 5 39 3.9 93 93 Calm 30.29 1026 2 3 0.00 0.00
12:20 pm 12:20 Cloudy with Mist and Fog 43 6.1 40 4.4 89 89 Calm 30.29 1026 3 4 0.00 0.00
12:28 pm 12:28 Cloudy with Mist and Fog 44 6.7 40 4.4 85 85 Calm 30.29 1026 3 5 0.00 0.00
12:53 pm 12:53 Cloudy with Mist and Fog 44 6.7 40 4.4 85 85 VRB 3 6 30.27 1025 3 5 0.00 0.00
1:18 pm 13:18 Mostly Cloudy with Haze 45 7.2 40 4.4 82 82 SW 3 6 30.28 1025 3 5 0.00 0.00
1:27 pm 13:27 Hazy 45 7.2 40 4.4 82 82 W 3 6 30.28 1025 3 5 0.00 0.00
1:42 pm 13:42 Mostly Cloudy with Haze 46 7.8 40 4.4 79 79 SSE 3 6 30.27 1025 3 5 0.00 0.00
1:51 pm 13:51 Hazy 46 8 41 5 81 81 Calm 30.27 1025 4 6 0.00 0.00
1:53 pm 13:53 Hazy 46 7.8 41 5 82 82 SSE 5 7 30.26 1025 4 6 0.00 0.00
2:53 pm 14:53 Hazy 48 8.9 41 5 76 76 W 3 6 30.28 1025 4 6 0.00 0.00
3:53 pm 15:53 Hazy 47 8.3 41 5 80 80 WSW 5 7 30.29 1026 4 6 0.00 0.00
4:53 pm 16:53 Clear with Mist and Fog 44 6.7 40 4.4 85 85 WSW 3 6 30.28 1026 3 5 0.00 0.00
5:53 pm 17:53 Clear with Mist and Fog 43 6.1 39 3.9 86 86 WNW 3 6 30.31 1026 4 6 0.00 0.00
6:33 pm 18:33 Clear with Mist and Fog 42 5.6 39 3.9 89 89 Calm 30.33 1027 3 4 0.00 0.00
6:53 pm 18:53 Clear with Mist and Fog 40 4.4 38 3.3 93 93 W 3 6 30.34 1027 3 4 0.00 0.00
7:19 pm 19:19 Clear with Mist and Fog 40 4.4 37 2.8 89 89 NW 3 6 30.35 1028 2 3 0.00 0.00
7:53 pm 19:53 Clear with Mist and Fog 39 3.9 37 2.8 93 93 Calm 30.35 1028 2 3 0.00 0.00
8:30 pm 20:30 Clear with Mist and Fog 37 2.8 35 1.7 92 92 NW 3 6 30.36 1028 3 4 0.00 0.00
8:44 pm 20:44 Clear with Mist and Fog 38 3.3 36 2.2 92 92 Calm 30.37 1028 1 2 0.00 0.00
8:53 pm 20:53 Mostly Clear with Mist and Fog 37 2.8 35 1.7 92 92 NW 5 7 30.36 1028 2 3 0.00 0.00
9:06 pm 21:06 Mostly Clear with Fog 38 3.3 36 2.2 92 92 NW 5 7 30.37 1028 0 0 0.00 0.00
9:53 pm 21:53 Mostly Clear with Fog 38 3.3 37 2.8 97 97 NNW 6 9 30.37 1028 0 0 0.00 0.00
10:01 pm 22:01 Mostly Clear with Fog 38 3.3 37 2.8 97 97 NNW 5 7 30.38 1029 0 0 0.00 0.00
10:53 pm 22:53 Mostly Clear with Fog 37 2.8 36 2.2 96 96 ENE 5 7 30.36 1028 0 0 0.01 0.13
11:53 pm 23:53 Mostly Clear with Fog 37 2.8 37 2.8 100 100 Calm 30.36 1028 0 0 0.00 0.00

Powered by AerisWeather